Downstream station:
SHEF ID: BCDO2 Kiamichi River near Big Cedar, O
STATION TYPE:
Regulating: Stage = 9.00, Flow = 2088
STAGE RIV-FLOW WTR-TEMP BAT-LOAD
ft cfs F volt
Ccp-Rev Ccp-Rev Ccp-Rev Ccp-Rev
(US/Central)
07/11 00:00 2.55 0 87.71 12.23
07/11 01:00 2.55 0 87.15 12.22
07/11 02:00 2.55 0 86.61 12.21
07/11 03:00 2.55 0 86.04 12.20
07/11 04:00 2.56 0 85.55 12.17
07/11 05:00 2.56 0 85.01 12.16
07/11 06:00 2.56 0 84.29 12.14
07/11 07:00 2.57 0 83.88 12.13
07/11 08:00 2.56 0 83.59 12.40
07/11 09:00 2.57 0 83.79 12.96
07/11 10:00 2.56 0 84.18 12.91
07/11 11:00 2.56 0 84.87 12.90
07/11 12:00 2.56 0 86.79 12.90
07/11 13:00 2.55 0 87.82 12.87
07/11 14:00 2.55 0 88.90 12.80
07/11 15:00 2.55 0 89.46 12.74
07/11 16:00 2.53 0 90.25 12.70
07/11 17:00 2.53 0 90.45 12.65
07/11 18:00 2.53 0 90.88 12.59
07/11 19:00 2.53 0 90.37 12.55
07/11 20:00 2.53 0 89.56 12.53
07/11 21:00 2.54 0 88.92 12.33
07/11 22:00 2.54 0 88.21 12.27
07/11 23:00 2.54 0 87.60 12.24